Location: Champs
(48.8539°N, 2.6040°E)
Time: 06:11:02
(UTC+00:00)

Cosmos 2237 Rocket - Pass Details

Date: 26 October 2021
Orbit: 835 x 850 km, 71.0° (Epoch: 04 December)

Event Time Altitude Azimuth Distance (km) Brightness Sun altitude
Rises 04:37:58 0° 334° (NNW) 3,424 5.1 -18.5°
Reaches altitude 10° 04:40:35 10° 342° (NNW) 2,484 4.5 -18.1°
Maximum altitude 04:45:59 42° 52° (NE) 1,201 3.4 -17.2°
Drops below altitude 10° 04:51:19 10° 123° (ESE) 2,462 5.5 -16.3°
Sets 04:53:53 0° 130° (SE) 3,391 6.2 -15.9°
